• In Hungary
  • List of Countries
  • For 7 days
  • Water Temperature
  • Satellite Maps
  • Weather Map
  • News
  • Weather Widgets
  • user-avatar
    Login

    Hourly Weather Kuenka

    Today, 23 February, Friday

    Time Temperature Precipitation Wind Pressure Humidity
    00:00 +10°C° 0 mm 1 mps 559 mmHg 85%
    01:00 +10°C° 0 mm 1 mps 559 mmHg 83%
    02:00 +10°C° 0 mm 1 mps 559 mmHg 81%
    03:00 +10°C° 0 mm 1 mps 559 mmHg 79%
    04:00 +9°C° 0 mm 1 mps 558 mmHg 77%
    05:00 +10°C° 0 mm 1 mps 559 mmHg 75%
    06:00 +10°C° 0 mm 1 mps 559 mmHg 73%
    07:00 +10°C° 0 mm 1 mps 559 mmHg 70%
    08:00 +13°C° 0 mm 1 mps 561 mmHg 64%
    09:00 +15°C° 0 mm 1 mps 562 mmHg 57%
    10:00 +18°C° 0 mm 2 mps 564 mmHg 51%
    11:00 +18°C° 0.2 mm 2 mps 563 mmHg 54%
    12:00 +18°C° 0.2 mm 2 mps 563 mmHg 57%
    13:00 +18°C° 0.2 mm 2 mps 563 mmHg 60%
    14:00 +18°C° 0.5 mm 2 mps 562 mmHg 63%
    15:00 +17°C° 0.5 mm 2 mps 561 mmHg 66%
    16:00 +17°C° 0.5 mm 2 mps 560 mmHg 70%
    17:00 +15°C° 0.4 mm 2 mps 560 mmHg 75%
    18:00 +14°C° 0.4 mm 2 mps 559 mmHg 81%
    19:00 +12°C° 0.4 mm 1 mps 559 mmHg 86%
    20:00 +12°C° 0.1 mm 1 mps 559 mmHg 86%
    21:00 +11°C° 0.1 mm 1 mps 559 mmHg 85%
    22:00 +11°C° 0.1 mm 1 mps 559 mmHg 85%
    23:00 +11°C° 0 mm 1 mps 559 mmHg 83%

    Tomorrow, 24 February, Saturday

    Time Temperature Precipitation Wind Pressure Humidity
    00:00 +10°C° 0 mm 1 mps 559 mmHg 81%
    01:00 +10°C° 0 mm 1 mps 559 mmHg 79%
    02:00 +10°C° 0 mm 1 mps 559 mmHg 78%
    03:00 +10°C° 0 mm 1 mps 558 mmHg 77%
    04:00 +10°C° 0 mm 1 mps 558 mmHg 76%
    05:00 +10°C° 0 mm 1 mps 558 mmHg 75%
    06:00 +10°C° 0 mm 1 mps 559 mmHg 74%
    07:00 +10°C° 0 mm 1 mps 559 mmHg 73%
    08:00 +13°C° 0 mm 1 mps 560 mmHg 65%
    09:00 +15°C° 0 mm 1 mps 562 mmHg 57%
    10:00 +18°C° 0 mm 1 mps 563 mmHg 49%
    11:00 +18°C° 0 mm 2 mps 563 mmHg 48%
    12:00 +19°C° 0 mm 2 mps 563 mmHg 47%
    13:00 +20°C° 0 mm 3 mps 563 mmHg 45%
    14:00 +19°C° 0.3 mm 3 mps 562 mmHg 50%
    15:00 +19°C° 0.3 mm 3 mps 561 mmHg 55%
    16:00 +18°C° 0.3 mm 3 mps 560 mmHg 60%
    17:00 +16°C° 0.2 mm 3 mps 560 mmHg 67%
    18:00 +14°C° 0.2 mm 2 mps 559 mmHg 73%
    19:00 +12°C° 0.2 mm 1 mps 559 mmHg 80%
    20:00 +12°C° 0 mm 1 mps 559 mmHg 77%
    21:00 +11°C° 0 mm 1 mps 559 mmHg 75%
    22:00 +11°C° 0 mm 1 mps 560 mmHg 72%
    23:00 +11°C° 0 mm 1 mps 560 mmHg 70%

    Day after tomorrow, 25 February, Sunday

    Time Temperature Precipitation Wind Pressure Humidity
    00:00 +10°C° 0 mm 1 mps 559 mmHg 68%
    01:00 +10°C° 0 mm 1 mps 559 mmHg 66%
    02:00 +10°C° 0 mm 1 mps 559 mmHg 66%
    03:00 +10°C° 0 mm 1 mps 558 mmHg 65%
    04:00 +10°C° 0 mm 1 mps 558 mmHg 64%
    05:00 +10°C° 0 mm 1 mps 559 mmHg 64%
    06:00 +10°C° 0 mm 1 mps 559 mmHg 64%
    07:00 +11°C° 0 mm 1 mps 559 mmHg 63%
    08:00 +13°C° 0 mm 1 mps 561 mmHg 57%
    09:00 +15°C° 0 mm 1 mps 562 mmHg 51%
    10:00 +19°C° 0 mm 1 mps 564 mmHg 45%
    11:00 +18°C° 0 mm 2 mps 563 mmHg 47%
    12:00 +18°C° 0 mm 2 mps 563 mmHg 50%
    13:00 +19°C° 0 mm 2 mps 562 mmHg 52%
    14:00 +18°C° 0.4 mm 2 mps 562 mmHg 57%
    15:00 +17°C° 0.4 mm 2 mps 561 mmHg 63%
    16:00 +16°C° 0.4 mm 2 mps 560 mmHg 69%
    17:00 +15°C° 0.3 mm 2 mps 560 mmHg 74%
    18:00 +14°C° 0.3 mm 2 mps 559 mmHg 79%
    19:00 +12°C° 0.3 mm 1 mps 559 mmHg 84%
    20:00 +12°C° 0.1 mm 1 mps 560 mmHg 83%
    21:00 +12°C° 0.1 mm 1 mps 560 mmHg 83%
    22:00 +11°C° 0.1 mm 1 mps 560 mmHg 82%
    23:00 +11°C° 0 mm 1 mps 560 mmHg 81%

    26 February, Monday

    Time Temperature Precipitation Wind Pressure Humidity
    00:00 +11°C° 0 mm 1 mps 560 mmHg 80%
    01:00 +10°C° 0 mm 1 mps 560 mmHg 78%
    02:00 +10°C° 0 mm 1 mps 559 mmHg 78%
    03:00 +10°C° 0 mm 1 mps 559 mmHg 77%
    04:00 +10°C° 0 mm 1 mps 559 mmHg 76%
    05:00 +10°C° 0 mm 1 mps 559 mmHg 75%
    06:00 +10°C° 0 mm 1 mps 560 mmHg 74%
    07:00 +10°C° 0 mm 1 mps 560 mmHg 73%
    08:00 +13°C° 0 mm 1 mps 561 mmHg 64%
    09:00 +15°C° 0 mm 1 mps 563 mmHg 55%
    10:00 +19°C° 0 mm 1 mps 564 mmHg 46%
    11:00 +18°C° 0.1 mm 2 mps 564 mmHg 49%
    12:00 +18°C° 0.1 mm 2 mps 563 mmHg 51%
    13:00 +19°C° 0.1 mm 2 mps 563 mmHg 54%
    14:00 +18°C° 0.3 mm 2 mps 562 mmHg 59%
    15:00 +17°C° 0.3 mm 2 mps 561 mmHg 64%
    16:00 +16°C° 0.3 mm 2 mps 560 mmHg 69%
    17:00 +15°C° 0.3 mm 2 mps 560 mmHg 74%
    18:00 +13°C° 0.3 mm 2 mps 559 mmHg 79%
    19:00 +12°C° 0.3 mm 1 mps 559 mmHg 84%
    20:00 +12°C° 0 mm 1 mps 559 mmHg 85%
    21:00 +11°C° 0 mm 1 mps 559 mmHg 86%
    22:00 +11°C° 0 mm 1 mps 560 mmHg 87%
    23:00 +10°C° 0 mm 1 mps 559 mmHg 87%

    27 February, Tuesday

    Time Temperature Precipitation Wind Pressure Humidity
    00:00 +10°C° 0 mm 1 mps 559 mmHg 86%
    01:00 +10°C° 0 mm 1 mps 559 mmHg 86%
    02:00 +10°C° 0 mm 1 mps 559 mmHg 85%
    03:00 +10°C° 0 mm 1 mps 558 mmHg 83%
    04:00 +10°C° 0 mm 1 mps 558 mmHg 82%
    05:00 +10°C° 0 mm 1 mps 559 mmHg 81%
    06:00 +10°C° 0 mm 1 mps 559 mmHg 79%
    07:00 +10°C° 0 mm 1 mps 559 mmHg 77%
    08:00 +13°C° 0 mm 1 mps 561 mmHg 69%
    09:00 +15°C° 0 mm 1 mps 562 mmHg 60%
    10:00 +19°C° 0 mm 1 mps 563 mmHg 52%
    11:00 +18°C° 0 mm 2 mps 563 mmHg 53%
    12:00 +18°C° 0 mm 2 mps 562 mmHg 54%
    13:00 +18°C° 0 mm 2 mps 562 mmHg 56%
    14:00 +18°C° 0.3 mm 2 mps 561 mmHg 61%
    15:00 +17°C° 0.3 mm 2 mps 560 mmHg 66%
    16:00 +16°C° 0.3 mm 2 mps 559 mmHg 71%
    17:00 +15°C° 0.3 mm 2 mps 559 mmHg 76%
    18:00 +14°C° 0.3 mm 1 mps 559 mmHg 80%
    19:00 +12°C° 0.3 mm 1 mps 559 mmHg 85%
    20:00 +12°C° 0 mm 1 mps 559 mmHg 85%
    21:00 +12°C° 0 mm 1 mps 559 mmHg 86%
    22:00 +11°C° 0 mm 1 mps 559 mmHg 87%
    23:00 +11°C° 0 mm 1 mps 559 mmHg 87%

    28 February, Wednesday

    Time Temperature Precipitation Wind Pressure Humidity
    00:00 +11°C° 0 mm 1 mps 559 mmHg 87%
    01:00 +11°C° 0 mm 1 mps 558 mmHg 87%
    02:00 +11°C° 0 mm 1 mps 558 mmHg 87%
    03:00 +10°C° 0 mm 1 mps 558 mmHg 86%
    04:00 +10°C° 0 mm 1 mps 558 mmHg 86%
    05:00 +11°C° 0 mm 1 mps 558 mmHg 84%
    06:00 +11°C° 0 mm 1 mps 558 mmHg 82%
    07:00 +11°C° 0 mm 1 mps 559 mmHg 81%
    08:00 +13°C° 0 mm 1 mps 560 mmHg 73%
    09:00 +15°C° 0 mm 1 mps 561 mmHg 66%
    10:00 +18°C° 0 mm 1 mps 563 mmHg 58%
    11:00 +18°C° 0.1 mm 2 mps 562 mmHg 60%
    12:00 +18°C° 0.1 mm 2 mps 562 mmHg 61%
    13:00 +18°C° 0.1 mm 2 mps 561 mmHg 63%
    14:00 +17°C° 0.4 mm 2 mps 560 mmHg 67%
    15:00 +16°C° 0.4 mm 2 mps 559 mmHg 72%
    16:00 +15°C° 0.4 mm 2 mps 559 mmHg 77%
    17:00 +14°C° 0.4 mm 1 mps 559 mmHg 79%
    18:00 +14°C° 0.4 mm 1 mps 559 mmHg 82%
    19:00 +13°C° 0.4 mm 1 mps 559 mmHg 85%
    20:00 +13°C° 0.2 mm 1 mps 559 mmHg 85%
    21:00 +12°C° 0.2 mm 1 mps 559 mmHg 85%
    22:00 +12°C° 0.2 mm 1 mps 560 mmHg 86%
    23:00 +12°C° 0.2 mm 1 mps 559 mmHg 86%
    Show more